TITAN 4B R/B (26474 NORAD) Tracking and Keplerian Element Data

This shows tracking and keplerian element data for the satellite.

Feedback or suggestion? Click here.




ElementValue
Catalog26474
NameTITAN 4B R/B
Epoch Orbit16562
Epoch Day15.9295011
Epoch Year2022
RAAN285.7353
Inclination67.9939
Eccentricity0.0060862
Argument of Perigee281.3958
Mean Anonmoly78.0352
Mean Motion14.96378552
Decay Rate7.58E-06
L11 26474U 00047B 22015.92950110 .00000758 00000+0 75236-4 0 9997
L22 26474 67.9939 285.7353 0060862 281.3958 78.0352 14.96378552165624

Live tracking and technical data element details for TITAN 4B R/B (NORAD 26474). TITAN 4B R/B can be tracked NOW for your location showing map with azimuth and elevation plus other details from your city location.

Track the satellite on the map from your city or location and see movement details for azimuth, elevation, latitude, longitude, range, height, and movement on the map or in text.







IsCatalogInMostPopularTable: catalog: 26474, numindb: 134
Update: records affected: 1



GetName: 26474 TITAN 4B R/B

Hit Count: updated at: Mon, 17 Jan 2022 00:44:13 GMT